Weather History for KLCH - February, 2013

Change the Weather History Date:

Wednesday, February 6, 2013

  Actual Average Record
Temperature  
Mean Temperature 62 °F 53 °F  
Max Temperature 66 °F 63 °F 80 °F (1969)
Min Temperature 57 °F 44 °F 21 °F (1912)
Degree Days  
Heating Degree Days 3 12  
Month to date heating degree days 31 73  
Since 1 July heating degree days 813 1064  
Cooling Degree Days 0 0  
Month to date cooling degree days 0 0  
Year to date cooling degree days 24 10  
Growing Degree Days 12 (Base 50)    
Moisture  
Dew Point 59 °F    
Average Humidity 91    
Maximum Humidity 100    
Minimum Humidity 81    
Precipitation  
Precipitation 0.84 in 0.12 in 1.97 in (1974)
Month to date precipitation 2.70 0.78  
Year to date precipitation 14.08 6.01  
Snow  
Snow 0.00 in 0.00 in T in (2014)
Month to date snowfall 0.0 0.0  
Since 1 July snowfall 0.0 T  
Snow Depth 0.00 in    
Sea Level Pressure  
Sea Level Pressure 30.02 in    
Wind  
Wind Speed 8 mph (ENE)    
Max Wind Speed 17 mph    
Max Gust Speed 23 mph    
Visibility 4 miles    
Events Fog , Rain    
T = Trace of Precipitation, MM = Missing Value Source: NWS Daily Summary

Daily Weather History Graph

Daily Weather History Graph

Search for Another Location

Airport or City:

Trip Planner

Search our weather history database for the weather conditions in past years. The results will help you decide how hot, cold, wet, or windy it might be!

Date:

Astronomy

Feb. 06, 2013 Rise Set
Actual Time 6:59 AM CST 5:54 PM CST
Civil Twilight 6:35 AM CST 6:19 PM CST
Nautical Twilight 6:06 AM CST 6:47 PM CST
Astronomical Twilight 5:38 AM CST 7:15 PM CST
Moon 3:36 AM CST (2/6) 2:21 PM CST (2/6)
Length of Visible Light 11h 44m
Length of Day
10h 54m
Waning Crescent, 17% of the Moon is Illuminated
Feb 6
Waning Crescent
Feb 10
New
Feb 17
First Quarter
Feb 25
Full
Mar 4
Last Quarter

Hourly Weather History & Observations

Time (CST) Temp. Dew Point Humidity Pressure Visibility Wind Dir Wind Speed Gust Speed Precip Events Conditions
12:07 AM 57.2 °F 55.4 °F 94% 30.03 in 0.2 mi Calm Calm - N/A Fog Fog
12:21 AM 57.2 °F 57.2 °F 100% 30.03 in 0.8 mi Calm Calm - N/A   Overcast
12:31 AM 59.0 °F 57.2 °F 94% 30.03 in 1.2 mi North 4.6 mph - N/A   Overcast
12:38 AM 59.0 °F 57.2 °F 94% 30.02 in 3.0 mi NE 5.8 mph - N/A   Overcast
12:53 AM 57.2 °F 57.2 °F 100% 30.02 in 3.0 mi NE 5.8 mph - N/A   Scattered Clouds
1:17 AM 59.0 °F 57.2 °F 94% 30.03 in 4.0 mi NE 6.9 mph - N/A   Scattered Clouds
1:26 AM 60.8 °F 57.2 °F 88% 30.03 in 4.0 mi ENE 8.1 mph - N/A   Mostly Cloudy
1:53 AM 60.1 °F 59.0 °F 96% 30.05 in 4.0 mi ENE 5.8 mph - N/A   Overcast
2:13 AM 60.8 °F 59.0 °F 94% 30.02 in 1.8 mi ENE 5.8 mph - N/A   Overcast
2:24 AM 60.8 °F 59.0 °F 94% 30.03 in 0.5 mi ENE 5.8 mph - N/A Fog Fog
2:53 AM 60.1 °F 57.9 °F 93% 30.06 in 0.5 mi ENE 8.1 mph - N/A Fog Fog
3:09 AM 60.8 °F 57.2 °F 88% 30.03 in 0.2 mi ENE 5.8 mph - N/A Fog Fog
3:25 AM 60.8 °F 57.2 °F 88% 30.02 in 0.5 mi East 6.9 mph - N/A Fog Fog
3:36 AM 59.0 °F 57.2 °F 94% 30.02 in 2.0 mi East 6.9 mph - N/A   Overcast
3:45 AM 59.0 °F 57.2 °F 94% 30.03 in 4.0 mi ENE 4.6 mph - N/A   Mostly Cloudy
3:53 AM 57.9 °F 57.0 °F 97% 30.05 in 4.0 mi ENE 4.6 mph - N/A   Scattered Clouds
4:53 AM 57.0 °F 55.9 °F 96% 30.07 in 4.0 mi NE 6.9 mph - N/A   Clear
5:53 AM 57.0 °F 55.9 °F 96% 30.08 in 5.0 mi ENE 4.6 mph - N/A   Clear
6:53 AM 57.9 °F 55.9 °F 93% 30.09 in 4.0 mi ENE 4.6 mph - N/A   Clear
7:02 AM 57.2 °F 55.4 °F 94% 30.06 in 3.0 mi ENE 8.1 mph - N/A   Partly Cloudy
7:53 AM 57.9 °F 55.9 °F 93% 30.08 in 4.0 mi ENE 8.1 mph - N/A   Partly Cloudy
8:53 AM 60.1 °F 57.0 °F 90% 30.09 in 5.0 mi East 6.9 mph - 0.00 in Rain Light Rain
9:43 AM 60.8 °F 57.2 °F 88% 30.09 in 3.0 mi East 4.6 mph - 0.00 in Rain Light Rain
9:53 AM 61.0 °F 57.9 °F 90% 30.13 in 3.0 mi SE 4.6 mph - 0.01 in Rain Light Rain
10:53 AM 62.1 °F 60.1 °F 93% 30.09 in 5.0 mi East 5.8 mph - 0.00 in   Overcast
11:34 AM 64.4 °F 60.8 °F 88% 30.05 in 7.0 mi East 8.1 mph - N/A   Overcast
11:53 AM 64.0 °F 61.0 °F 90% 30.07 in 5.0 mi East 5.8 mph - 0.01 in Rain Light Rain
12:53 PM 64.9 °F 61.0 °F 87% 30.04 in 10.0 mi East 8.1 mph - 0.00 in   Overcast
1:33 PM 66.2 °F 60.8 °F 83% 29.99 in 10.0 mi ESE 10.4 mph - N/A   Mostly Cloudy
1:53 PM 66.0 °F 61.0 °F 84% 29.99 in 10.0 mi East 10.4 mph - N/A   Mostly Cloudy
2:53 PM 64.9 °F 62.1 °F 90% 30.02 in 7.0 mi East 4.6 mph - 0.00 in Rain Light Rain
3:00 PM 64.4 °F 62.6 °F 94% 30.00 in 7.0 mi East 3.5 mph - 0.01 in Rain Light Rain
3:50 PM 64.4 °F 62.6 °F 94% 29.98 in 2.5 mi ENE 6.9 mph - 0.09 in Rain Rain
3:53 PM 64.0 °F 62.1 °F 93% 30.00 in 2.5 mi ENE 6.9 mph - 0.10 in Rain Rain
4:02 PM 64.4 °F 62.6 °F 94% 29.98 in 2.5 mi ENE 4.6 mph - 0.01 in Rain Rain
4:14 PM 64.4 °F 60.8 °F 88% 29.98 in 5.0 mi East 5.8 mph - 0.03 in Rain Light Rain
4:38 PM 64.4 °F 60.8 °F 88% 29.99 in 4.0 mi ENE 5.8 mph - 0.06 in Rain Rain
4:53 PM 64.0 °F 61.0 °F 90% 30.01 in 4.0 mi East 4.6 mph - 0.09 in Rain Rain
5:06 PM 62.6 °F 60.8 °F 94% 29.98 in 3.0 mi NE 5.8 mph - 0.03 in Rain Rain
5:21 PM 62.6 °F 60.8 °F 94% 29.99 in 4.0 mi ENE 5.8 mph - 0.07 in Rain Rain
5:36 PM 62.6 °F 60.8 °F 94% 29.99 in 2.5 mi ESE 6.9 mph - 0.16 in Rain Heavy Rain
5:53 PM 62.1 °F 60.1 °F 93% 29.99 in 2.5 mi East 4.6 mph - 0.26 in Rain Heavy Rain
6:07 PM 62.6 °F 60.8 °F 94% 29.96 in 3.0 mi East 8.1 mph - 0.06 in Rain Rain
6:17 PM 62.6 °F 60.8 °F 94% 29.97 in 4.0 mi East 9.2 mph - 0.09 in Rain Rain
6:34 PM 62.6 °F 60.8 °F 94% 29.95 in 4.0 mi East 9.2 mph - 0.12 in Rain Rain
6:53 PM 63.0 °F 60.1 °F 90% 29.97 in 4.0 mi East 10.4 mph 18.4 mph 0.15 in Rain Light Rain
7:44 PM 62.6 °F 60.8 °F 94% 29.95 in 5.0 mi East 12.7 mph - 0.02 in Rain Rain
7:53 PM 63.0 °F 60.1 °F 90% 29.98 in 4.0 mi East 12.7 mph - 0.04 in Rain Rain
8:53 PM 62.1 °F 59.0 °F 90% 29.98 in 4.0 mi East 13.8 mph 20.7 mph 0.05 in Rain Light Rain
9:53 PM 61.0 °F 59.0 °F 93% 29.97 in 4.0 mi ESE 16.1 mph - 0.06 in Rain Rain
10:53 PM 61.0 °F 57.9 °F 90% 29.95 in 10.0 mi East 11.5 mph - 0.05 in Rain Light Rain
11:53 PM 61.0 °F 57.0 °F 87% 29.92 in 10.0 mi East 12.7 mph - 0.02 in   Mostly Cloudy